Weather History for Victoria, BC

Change the Weather History Date:

Friday, August 29, 2014

  Actual Average Record
Temperature  
Mean Temperature 60 °F -  
Max Temperature 65 °F 66 °F 87 °F (1996)
Min Temperature 54 °F 47 °F 46 °F (2010)
Degree Days  
Heating Degree Days 6    
Growing Degree Days 10 (Base 50)    
Moisture  
Dew Point 51 °F    
Average Humidity 70    
Maximum Humidity 88    
Minimum Humidity 56    
Precipitation  
Precipitation 0.00 in 0.05 in - ()
Sea Level Pressure  
Sea Level Pressure 29.95 in    
Wind  
Wind Speed 4 mph ()    
Max Wind Speed 14 mph    
Max Gust Speed 21 mph    
Averages and records for this station are not official NWS values.
T = Trace of Precipitation, MM = Missing Value Source: Averaged Metar Reports

Daily Weather History Graph

Daily Weather History Graph

Search for Another Location

Airport:

Trip Planner

Search our weather history database for the weather conditions in past years. The results will help you decide how hot, cold, wet, or windy it might be!

Date:

Astronomy

Aug. 29, 2014 Rise Set
Actual Time 6:26 AM PDT 8:01 PM PDT
Civil Twilight 5:53 AM PDT 8:34 PM PDT
Nautical Twilight 5:13 AM PDT 9:14 PM PDT
Astronomical Twilight 4:29 AM PDT 9:57 PM PDT
Moon 10:44 AM PDT (8/29) 9:38 PM PDT (8/29)
Length of Visible Light 14h 40m
Length of Day
13h 34m
Waxing Crescent, 16% of the Moon is Illuminated
Aug 29
Waxing Crescent
Sep 2
First Quarter
Sep 8
Full
Sep 15
Last Quarter
Sep 23
New

Hourly Weather History & Observations

Time (PDT) Temp. Dew Point Humidity Pressure Visibility Wind Dir Wind Speed Gust Speed Precip Events Conditions
12:00 AM 60.8 °F 53.6 °F 77% 29.99 in 30.0 mi SSE 3.5 mph - N/A   Mostly Cloudy
1:00 AM 59.0 °F 51.8 °F 77% 29.98 in 30.0 mi SSE 4.6 mph - N/A   Mostly Cloudy
2:00 AM 57.2 °F 53.6 °F 88% 29.97 in 30.0 mi Variable 2.3 mph - N/A   Partly Cloudy
3:00 AM 60.8 °F 51.8 °F 72% 29.96 in 30.0 mi West 3.5 mph - N/A   Partly Cloudy
4:00 AM 59.0 °F 50.0 °F 72% 29.96 in 30.0 mi SSW 3.5 mph - N/A   Scattered Clouds
5:00 AM 57 °F 50 °F 69% 29.95 in 28 mi ESE 2.3 mph - -   Scattered Clouds
5:00 AM 57.2 °F 50.0 °F 77% 29.95 in 30.0 mi Calm Calm - N/A   Scattered Clouds
6:00 AM 55.4 °F 48.2 °F 77% 29.94 in 30.0 mi Calm Calm - N/A   Mostly Cloudy
7:00 AM 57.2 °F 48.2 °F 72% 29.94 in 30.0 mi Calm Calm - N/A   Mostly Cloudy
8:00 AM 59.0 °F 48.2 °F 67% 29.96 in 30.0 mi Variable 2.3 mph - N/A   Overcast
9:00 AM 60.8 °F 48.2 °F 63% 29.95 in 30.0 mi South 4.6 mph - N/A   Mostly Cloudy
10:00 AM 59.0 °F 51.8 °F 77% 29.95 in 30.0 mi SE 6.9 mph - N/A   Mostly Cloudy
11:00 AM 62 °F 51 °F 57% 29.95 in 28 mi East 6.9 mph - -   Mostly Cloudy
11:00 AM 62.6 °F 50.0 °F 63% 29.95 in 30.0 mi East 6.9 mph - N/A   Mostly Cloudy
12:00 PM 64.4 °F 51.8 °F 64% 29.95 in 30.0 mi ESE 8.1 mph - N/A   Mostly Cloudy
1:00 PM 64.4 °F 48.2 °F 56% 29.95 in 30.0 mi ESE 10.4 mph - N/A   Mostly Cloudy
2:00 PM 64.4 °F 50.0 °F 59% 29.94 in 30.0 mi ESE 11.5 mph - N/A   Mostly Cloudy
3:00 PM 59.0 °F 51.8 °F 77% 29.94 in 30.0 mi SE 13.8 mph 20.7 mph N/A   Overcast
4:00 PM 62.6 °F 51.8 °F 68% 29.94 in 30.0 mi ESE 12.7 mph - N/A   Mostly Cloudy
5:00 PM 61 °F 50 °F 57% 29.94 in 28 mi SE 13.8 mph - -   Mostly Cloudy
5:00 PM 60.8 °F 50.0 °F 68% 29.94 in 30.0 mi SE 13.8 mph 20.7 mph N/A   Mostly Cloudy
6:00 PM 60.8 °F 51.8 °F 72% 29.94 in 30.0 mi East 5.8 mph - N/A   Mostly Cloudy
7:00 PM 64.4 °F 53.6 °F 68% 29.94 in 30.0 mi NNW 4.6 mph - N/A   Mostly Cloudy
8:00 PM 60.8 °F 53.6 °F 77% 29.93 in 30.0 mi NE 3.5 mph - N/A   Scattered Clouds
9:00 PM 60.8 °F 53.6 °F 77% 29.94 in 30.0 mi Variable 2.3 mph - N/A   Mostly Cloudy
10:00 PM 59.0 °F 51.8 °F 77% 29.93 in 30.0 mi WSW 4.6 mph - N/A   Mostly Cloudy
11:00 PM 61 °F 52 °F 65% 29.93 in 28 mi SSW 2.3 mph - -   Partly Cloudy
11:00 PM 60.8 °F 51.8 °F 72% 29.93 in 30.0 mi Calm Calm - N/A   Scattered Clouds